Regional Weather Roundup
Issued by NWS

Home | Current Version | Previous Version | Graphics & Text | Print | Product List | Glossary On
Versions: 1 2 3 4 5 6 7 8 9 10 11 12 13 14 15 16 17 18 19 20 21 22 23 24 25 26 27 28 29 30 31 32 33 34 35 36 37 38 39 40 41 42 43 44 45 46 47 48 49 50
000
ASUS43 KFSD 282010
RWRSD

WEATHER ROUNDUP FOR SOUTH DAKOTA
NATIONAL WEATHER SERVICE SIOUX FALLS SD
300 PM CDT SUN AUG 28 2016

NOTE: "FAIR" INDICATES FEW OR NO CLOUDS BELOW 12,000 FEET WITH NO
SIGNIFICANT WEATHER AND/OR OBSTRUCTIONS TO VISIBILITY.


SDZ001>005-009-010-012>017-282100-
NORTHWEST AND NORTH CENTRAL SOUTH DAKOTA

CITY           SKY/WX    TMP DP  RH WIND       PRES   REMARKS
BUFFALO          N/A     94  36  13 W8        29.90S
FAITH            N/A     93  47  20 SE8       29.95R
MOBRIDGE       SUNNY     90  61  37 SE13      29.89S
$$

SDZ012>016-024>037-041>051-057-063-072>074-282100-
SOUTHWEST AND SOUTH CENTRAL SOUTH DAKOTA

CITY           SKY/WX    TMP DP  RH WIND       PRES   REMARKS
RAPID CTY ARPT SUNNY     89  46  22 E8        29.99S
PIERRE         SUNNY     94  59  31 S9G18     29.89S
CUSTER         SUNNY     84  32  15 S8        30.14S
ELLSWORTH AFB  SUNNY     88  49  26 SE8       29.99S
PHILIP         SUNNY     92  52  25 VRB5      29.93S
PINE RIDGE     SUNNY     91  45  20 S6        30.01S
WINNER         FAIR      97  62  31 S17       29.96F HX  98
$$

SDZ004>011-016>023-039-040-282100-
NORTHEAST SOUTH DAKOTA

CITY           SKY/WX    TMP DP  RH WIND       PRES   REMARKS
ABERDEEN       SUNNY     90  68  48 S21G30    29.91F
WATERTOWN      SUNNY     87  72  60 S20G28    30.00F
BROOKINGS      SUNNY     85  73  67 S21       30.03F
SISSETON         N/A     86  74  67 S15G28    29.95F
$$

SDZ017-020-022-023-036>040-048>070-282100-
SOUTHEAST SOUTH DAKOTA

CITY           SKY/WX    TMP DP  RH WIND       PRES   REMARKS
SIOUX FALLS    MOSUNNY   88  73  61 S18       30.04F HX  95
HURON          SUNNY     90  69  50 S18G28    29.94F
CHAMBERLAIN    SUNNY     96  63  33 S17G25    29.95S HX  97
MITCHELL       SUNNY     91  68  46 S21G28    29.98F HX  95
YANKTON        SUNNY     90  70  51 SE22      30.00F HX  95
$$

ABBREVIATIONS USED IN REMARKS
   TC - TEMPERATURE IN CELSIUS
  WCI - WIND CHILL INDEX
   HX - HEAT INDEX
  VSB - VISIBILITY





USA.gov is the U.S. government's official web portal to all federal, state and local government web resources and services.